Content
SEND FEEDBACK

Daily
Averages
Monthly
Summary
United States of America

DAUPHIN ISLAND, ALABAMA


Home > North America > United States > Alabama
Elevation: 0 feet     Latitude: 30 15N     Longitude: 088 05W

WEATHER
 
SELECT A DAY
Number of Records: 50,901;   Date Range: 6/6/11 - 10/22/14
 
SHARE

PRINT THIS DATA

[ ← Previous Day ]
WEATHER ALMANAC - JULY 30, 2014
[ Next Day → ]
[ °C ]   °F
Weather ElementAverageHighLow
Temperature74.4 °F82.4 °F (8:55 am)64.4 °F (6:15 am)
Dewpoint59 °F62.6 °F (4:35 am)51.8 °F (4:55 pm)
Humidity61.1 %94 % (12:15 am)35 % (2:55 pm)
Barometer30.03 in30.06 in (12:15 am)29.99 in (4:15 pm)
Wind Speed5 mph9.2 mph (4:15 pm)
Weather ElementAverage
Visibility10 mi
Wind DirectionSE (134.6 °)

Weather ElementTotal
Precipitation---
Cooling Degree Days8.4 (Base 65)
Growing Degree Days23.4 (Base 50)
Averaged from 69 records on July 30, 2014
WEATHER CONDITIONS BREAKOUT
WIND DIRECTION BREAKOUT
WEATHER BY HOUR - JULY 30, 2014
[ °C ]   °F
Local TimeTemperatureDewpointHumidityBarometerVisibilityWind DirectionWind SpeedGust SpeedPrecipitationEventsConditions
12:35 AM73.4 °F62.6 °F69 %30.03 in10.0 miNNE (20°)9.2 mphMostly Cloudy
12:55 AM73.4 °F62.6 °F69 %30.03 in10.0 miNorth (10°)5.8 mphMostly Cloudy
1:15 AM73.4 °F60.8 °F65 %30.03 in10.0 miNNE (20°)8.1 mphScattered Clouds
1:35 AM71.6 °F60.8 °F69 %30.03 in10.0 miNorth (10°)5.8 mphScattered Clouds
1:55 AM71.6 °F60.8 °F69 %30.03 in10.0 miNNE (20°)8.1 mphScattered Clouds
2:15 AM71.6 °F60.8 °F69 %30.02 in10.0 miNNE (20°)4.6 mphMostly Cloudy
2:35 AM69.8 °F60.8 °F73 %30.03 in10.0 miNNE (20°)5.8 mphMostly Cloudy
3:15 AM69.8 °F60.8 °F73 %30.02 in10.0 miNNE (20°)6.9 mphScattered Clouds
3:35 AM68.0 °F60.8 °F78 %30.02 in10.0 miNNE (20°)4.6 mphClear
3:55 AM68.0 °F60.8 °F78 %30.02 in10.0 miNNE (20°)4.6 mphClear
4:15 AM68.0 °F59.0 °F73 %30.02 in10.0 miNNE (20°)5.8 mphScattered Clouds
4:35 AM68.0 °F59.0 °F73 %30.02 in10.0 miNNE (20°)5.8 mphScattered Clouds
4:55 AM68.0 °F59.0 °F73 %30.03 in10.0 miNNE (20°)4.6 mphClear
5:15 AM66.2 °F59.0 °F78 %30.03 in10.0 miNNE (20°)4.6 mphClear
5:35 AM66.2 °F59.0 °F78 %30.03 in10.0 miNNE (20°)5.8 mphClear
5:55 AM66.2 °F59.0 °F78 %30.04 in10.0 miNNE (20°)5.8 mphClear
6:15 AM64.4 °F59.0 °F83 %30.04 in10.0 miNNE (20°)5.8 mphClear
6:35 AM64.4 °F59.0 °F83 %30.04 in10.0 miNNE (30°)6.9 mphClear
6:55 AM66.2 °F57.2 °F73 %30.04 in10.0 miNNE (30°)6.9 mphClear
7:15 AM68.0 °F57.2 °F68 %30.05 in10.0 miNE (40°)5.8 mphClear
7:35 AM68.0 °F59.0 °F73 %30.05 in10.0 miNE (40°)6.9 mphClear
7:55 AM69.8 °F57.2 °F64 %30.05 in10.0 miNE (40°)6.9 mphClear
8:15 AM71.6 °F59.0 °F64 %30.05 in10.0 miNE (50°)6.9 mphClear
8:35 AM71.6 °F59.0 °F64 %30.05 in10.0 miNE (40°)9.2 mphClear
8:55 AM73.4 °F59.0 °F61 %30.05 in10.0 miENE (60°)6.9 mphClear
9:15 AM75.2 °F59.0 °F57 %30.06 in10.0 miNE (40°)8.1 mphClear
9:35 AM75.2 °F59.0 °F57 %30.06 in10.0 miNE (40°)5.8 mphClear
9:55 AM77.0 °F59.0 °F54 %30.06 in10.0 miENE (70°)6.9 mphClear
10:15 AM77.0 °F59.0 °F54 %30.06 in10.0 miNE (40°)4.6 mphClear
10:35 AM78.8 °F59.0 °F51 %30.06 in10.0 miNorth (360°)5.8 mphClear
10:55 AM78.8 °F59.0 °F51 %30.06 in10.0 miNE (50°)4.6 mphScattered Clouds
11:15 AM78.8 °F59.0 °F51 %30.05 in10.0 miCalmClear
11:35 AM80.6 °F60.8 °F51 %30.05 in10.0 miNNE (30°)4.6 mphClear
11:55 AM80.6 °F60.8 °F51 %30.05 in10.0 miNorth (10°)5.8 mphClear
12:15 PM80.6 °F60.8 °F51 %30.04 in10.0 miNW (310°)4.6 mphClear
12:35 PM80.6 °F60.8 °F51 %30.04 in10.0 miNNW (340°)4.6 mphClear
12:55 PM80.6 °F59.0 °F48 %30.03 in10.0 miNorth (350°)5.8 mphClear
1:15 PM80.6 °F57.2 °F45 %30.03 in10.0 miNW (320°)6.9 mphClear
1:35 PM80.6 °F55.4 °F42 %30.03 in10.0 miWNW (300°)5.8 mphClear
1:55 PM80.6 °F55.4 °F42 %30.03 in10.0 miNNW (340°)5.8 mphClear
2:15 PM80.6 °F59.0 °F48 %30.02 in10.0 miNW (320°)8.1 mphClear
2:35 PM80.6 °F55.4 °F42 %30.02 in10.0 miNW (310°)4.6 mphClear
2:55 PM80.6 °F57.2 °F45 %30.01 in10.0 miNNW (330°)5.8 mphClear
3:15 PM82.4 °F57.2 °F42 %30.01 in10.0 miNorth (350°)6.9 mphClear
3:35 PM82.4 °F57.2 °F42 %30.00 in10.0 miNW (320°)6.9 mphClear
3:55 PM82.4 °F57.2 °F42 %30.00 in10.0 miNNW (330°)8.1 mphClear
4:15 PM82.4 °F53.6 °F37 %29.99 in10.0 miNW (320°)5.8 mphClear
4:35 PM82.4 °F53.6 °F37 %29.99 in10.0 miNNW (330°)8.1 mphClear
4:55 PM82.4 °F51.8 °F35 %29.99 in10.0 miNNW (330°)5.8 mphClear
5:15 PM82.4 °F53.6 °F37 %29.99 in10.0 miNNW (330°)6.9 mphClear
5:35 PM82.4 °F53.6 °F37 %29.99 in10.0 miNNW (330°)6.9 mphClear
5:55 PM82.4 °F53.6 °F37 %29.99 in10.0 miNNW (340°)5.8 mphClear
6:15 PM80.6 °F55.4 °F42 %29.99 in10.0 miNNW (330°)4.6 mphClear
6:35 PM80.6 °F55.4 °F42 %29.99 in10.0 miNNW (340°)4.6 mphClear
6:55 PM80.6 °F59.0 °F48 %29.99 in10.0 miNNW (340°)5.8 mphClear
7:15 PM78.8 °F59.0 °F51 %30.00 in10.0 miNorth (350°)4.6 mphClear
7:35 PM77.0 °F59.0 °F54 %30.00 in10.0 miNorth (350°)3.5 mphClear
7:55 PM75.2 °F60.8 °F61 %30.01 in10.0 miNE (40°)3.5 mphClear
8:15 PM73.4 °F60.8 °F65 %30.01 in10.0 miCalmClear
8:35 PM73.4 °F62.6 °F69 %30.01 in10.0 miNorth (350°)3.5 mphClear
8:55 PM71.6 °F62.6 °F73 %30.02 in10.0 miCalmClear
9:15 PM69.8 °F62.6 °F78 %30.02 in10.0 miCalmClear
9:35 PM69.8 °F62.6 °F78 %30.03 in10.0 miCalmClear
9:55 PM68.0 °F62.6 °F83 %30.03 in10.0 miCalmClear
10:15 PM68.0 °F62.6 °F83 %30.03 in10.0 miCalmClear
10:35 PM68.0 °F62.6 °F83 %30.03 in10.0 miCalmClear
11:15 PM68.0 °F62.6 °F83 %30.02 in10.0 miCalmClear
11:35 PM64.4 °F62.6 °F94 %30.02 in10.0 miCalmClear
11:55 PM64.4 °F62.6 °F94 %30.02 in10.0 miCalmClear
Hourly data recorded from KCQF, located miles away from Dauphin Island, Alabama







STORIES FROM OUR PARTNERS